Location: Unspecified
(50.3480°N, 0.0000°E)
Time: 09:10:54
(UTC+00:00)

VELOX 1 - Visible Passes

Search period start: 05 April 2026 00:00
Search period end: 15 April 2026 00:00
Orbit: 570 x 581 km, 98.3° (Epoch: 29 March)

Date Brightness Start Highest point End Pass type
(mag) Time Alt. Az. Time Alt. Az. Time Alt. Az.
5 Apr ? 01:10:20 10° NW 01:10:30 10° NW 01:10:30 10° NW visible
5 Apr ? 23:36:30 10° N 23:37:54 21° N 23:37:54 21° N visible
6 Apr ? 23:39:59 10° N 23:41:32 22° N 23:41:32 22° N visible
7 Apr ? 23:43:28 10° N 23:45:08 23° N 23:45:08 23° N visible
8 Apr ? 23:46:56 10° N 23:48:43 25° N 23:48:43 25° N visible
9 Apr ? 23:50:24 10° N 23:52:18 26° N 23:52:18 26° N visible
10 Apr ? 22:19:26 10° NE 22:19:37 11° NE 22:19:37 11° NE visible
10 Apr ? 23:53:50 10° N 23:55:51 27° N 23:55:51 27° N visible
11 Apr ? 22:22:43 10° NE 22:23:09 12° NE 22:23:09 12° NE visible
11 Apr ? 23:57:15 10° N 23:59:24 28° NNW 23:59:24 28° NNW visible
12 Apr ? 22:26:02 10° NE 22:26:41 13° NE 22:26:41 13° NE visible
13 Apr ? 00:00:40 10° N 00:02:55 28° NNW 00:02:55 28° NNW visible
13 Apr ? 22:29:18 10° NE 22:30:11 14° NE 22:30:11 14° NE visible
14 Apr ? 00:04:03 10° N 00:06:25 29° NNW 00:06:25 29° NNW visible
14 Apr ? 22:32:35 10° NE 22:33:40 16° NE 22:33:40 16° NE visible
